Find Local Weather

World > North America > United States > Pennsylvania

Erie, Pennsylvania Regional Weather

Lat: 42.13N, Lon: 80.09W
Wx Zone: PAZ001
Feedback
Expires:201810180400;;349801
ASUS41 KPHI 180313
RWRPHI

REGIONAL WEATHER ROUNDUP
NATIONAL WEATHER SERVICE MOUNT HOLLY NJ
1100 PM EDT WED OCT 17 2018

NOTE:  "FAIR" INDICATES FEW OR NO CLOUDS BELOW 12,000 FEET WITH NO
SIGNIFICANT WEATHER AND/OR OBSTRUCTIONS TO VISIBILITY.

 * = STATION DOES NOT REPORT PRECIPITATION (E.G. RAIN, SNOW, ETC.) 
        OR FOG.


PAZ001-021-NYZ056-072-MDZ011-DCZ001-180400-
OTHER NEARBY LOCATIONS
  
CITY           SKY/WX    TMP DP  RH WIND       PRES   REMARKS
HARRISBURG     MOCLDY    50  33  52 NW17      30.20R                  
STATE COLLEGE  MOCLDY    42  32  67 NW6       30.22R                  
WILLIAMSPORT   FAIR      43  29  57 W9        30.19R                  
BINGHAMTON     CLOUDY    36  29  75 W8G22     30.10R WCI  30          
NEW YORK CITY  NOT AVBL                                               
BALTIMORE      FAIR      49  40  71 W3        30.18R                  
WASHINGTON DC  MOCLDY    59  36  42 VRB5      30.20R                  

$$
  

SKY/WX - Weather  TMP - Temperature  DP - Dew Point  RH - Relative Humidity
WIND - Wind Direction/Speed PRES - Barometric Pressure
Opt in/Opt out of Taboola Video Ads